Flag Weather past 2 weeks in Decatur, Illinois, U.S.A.

Now
28 °F

Light snow. Ice fog.


Feels Like: 19 °F
Forecast: 18 / 28 °F
Wind: 10 mph from Northeast

Location: Decatur Airport

Current Time: Nov 26, 2014 at 11:38:24 PM

Latest Report: Nov 26, 2014 at 10:54 PM


Visibility: 4 mi

Pressure: 30.20 "Hg

Humidity: 85%

Dew point: 24 °F

Location of DecaturLocation

Historic Weather in Decatur — Graph

°F

Decatur temperature yesterday

Maximum temperature yesterday: 34 °F (at 12:54 AM)
Minimum temperature yesterday: 23 °F (at 11:54 PM)
Average temperature yesterday: 29 °F

Past Weeks' High & Low Weather Summary

 TemperatureHumidityPressure
High57 °F (Nov 22, 11:54 AM)100% (Nov 23, 2:54 PM)30.50 "Hg (Nov 23, 2:54 PM)
Low11 °F (Nov 21, 4:54 AM)36% (Nov 21, 1:54 PM)29.15 "Hg (Nov 24, 2:54 AM)
Average30 °F71%30.12 "Hg
* Reported Nov 11 9:54 PM — Nov 26 9:54 PM, Decatur, Weather by CustomWeather, © 2014

Note: Actual official high and low records may vary slightly from our data, if they occured in-between our weather recording intervals... More about our weather records

Advertising

Decatur weather history for previous 24 hours

 ConditionsComfort  
Time TempWeatherWind HumidityBarometerVisibility
9:54 PM
Nov 26
28 °FLight snow. Ice fog.12 mph89%30.18 "Hg2 mi
8:54 PM29 °FLight snow. Ice fog.9 mph89%30.15 "Hg2 mi
8:01 PM29 °FLight snow. Ice fog.8 mph89%30.11 "Hg2 mi
6:54 PM29 °FLight snow. Ice fog.7 mph89%30.12 "Hg2 mi
5:54 PM29 °FLight snow. Ice fog.9 mph89%30.10 "Hg2 mi
4:54 PM29 °FLight snow. Ice fog.12 mph89%30.09 "Hg1 mi
3:54 PM29 °FLight snow. Ice fog.13 mph89%30.08 "Hg1 mi
2:54 PM29 °FLight snow. Ice fog.12 mph89%30.08 "Hg1 mi
1:54 PM29 °FIce fog.13 mph89%30.08 "Hg5 mi
12:54 PM29 °FIce fog.13 mph89%30.08 "Hg5 mi
11:54 AM29 °FIce fog.12 mph89%30.09 "Hg5 mi
10:54 AM30 °FIce fog.13 mph85%30.11 "Hg6 mi
9:54 AM28 °FIce fog.12 mph89%30.13 "Hg5 mi
8:54 AM27 °FIce fog.14 mph89%30.14 "Hg6 mi
7:54 AM25 °FSunny.9 mph88%30.15 "Hg7 mi
6:54 AM23 °FSunny.7 mph92%30.15 "Hg7 mi
5:54 AM23 °FClear.6 mph92%30.14 "Hg9 mi
4:54 AM22 °FClear.5 mph89%30.14 "Hg10 mi
3:54 AM23 °FClear.No wind85%30.16 "Hg10 mi
2:54 AM21 °FClear.6 mph88%30.15 "Hg9 mi
1:54 AM22 °FClear.No wind92%30.17 "Hg9 mi
12:54 AM23 °FClear.No wind96%30.18 "Hg7 mi
11:54 PM
Nov 25
23 °FClear.No wind92%30.19 "Hg8 mi
Weather by CustomWeather, © 2014

See weather overviewHow to use our weather pages